Regional Weather Roundup
Issued by NWS

Home | Current Version | Previous Version | Graphics & Text | Print | Product List | Glossary On
Versions: 1 2 3 4 5 6 7 8 9 10 11 12 13 14 15 16 17 18 19 20 21 22 23 24 25 26 27 28 29 30 31 32 33 34 35 36 37 38 39 40 41 42 43 44 45 46 47 48 49 50
000
ASUS43 KFSD 172310
RWRSD

WEATHER ROUNDUP FOR SOUTH DAKOTA
NATIONAL WEATHER SERVICE SIOUX FALLS SD
600 PM CDT WED SEP 17 2014

NOTE: "FAIR" INDICATES FEW OR NO CLOUDS BELOW 12,000 FEET WITH NO
SIGNIFICANT WEATHER AND/OR OBSTRUCTIONS TO VISIBILITY.


SDZ001>005-009-010-012>017-180000-
NORTHWEST AND NORTH CENTRAL SOUTH DAKOTA

CITY           SKY/WX    TMP DP  RH WIND       PRES   REMARKS
BUFFALO          N/A     75  51  43 E16       29.88F
FAITH            N/A     72  53  51 E10       29.96R
MOBRIDGE       CLOUDY    71  49  45 E10       29.95R
$$

SDZ012>016-024>037-041>051-057-063-072>074-180000-
SOUTHWEST AND SOUTH CENTRAL SOUTH DAKOTA

CITY           SKY/WX    TMP DP  RH WIND       PRES   REMARKS
RAPID CTY ARPT SUNNY     78  48  34 SE12      29.92S
PIERRE         MOSUNNY   77  52  41 E13       29.91R
CUSTER         MOSUNNY   75  35  23 SE8       30.04F
ELLSWORTH AFB  MOSUNNY   79  49  33 SE9       29.92
PHILIP         MOSUNNY   79  54  41 E15       29.90S
PINE RIDGE     PTSUNNY   82  50  32 E12       29.92F
WINNER         FAIR      78  54  43 E12       29.92S
$$

SDZ004>011-016>023-039-040-180000-
NORTHEAST SOUTH DAKOTA

CITY           SKY/WX    TMP DP  RH WIND       PRES   REMARKS
ABERDEEN       MOSUNNY   69  50  50 NE6       29.96R
WATERTOWN      SUNNY     71  51  49 E8        29.96R
SISSETON         N/A     74  53  48 E5        29.94S
$$

SDZ017-020-022-023-036>040-048>070-180000-
SOUTHEAST SOUTH DAKOTA

CITY           SKY/WX    TMP DP  RH WIND       PRES   REMARKS
SIOUX FALLS    PTSUNNY   78  52  40 NE6       29.92S
HURON          MOSUNNY   76  48  37 N5        29.93R
CHAMBERLAIN    MOSUNNY   75  56  52 E3        29.93S
MITCHELL       MOSUNNY   78  55  44 N6        29.92S
YANKTON        SUNNY     77  57  50 E3        29.91R
$$

ABBREVIATIONS USED IN REMARKS
   TC - TEMPERATURE IN CELSIUS
  WCI - WIND CHILL INDEX
   HX - HEAT INDEX
  VSB - VISIBILITY




USA.gov is the U.S. government's official web portal to all federal, state and local government web resources and services.